CW9414 Weather Reports


time (UTC)temp
C
wind
direction
speed
KPH
gust
KPH
rain 1hr
cm
rain 24hr
cm
rain mn
cm
humidity
%
barometer
mb
20260901175449 31 18 1.6 4.8 0.00 0.00 0.00 62 1011.3
20260901174445 31 18 1.6 6.4 0.00 0.00 0.00 63 1011.8
20260901173445 31 23 1.6 3.2 0.00 0.00 0.00 64 1011.8
20260901172445 31 26 0.0 4.8 0.00 0.00 0.00 65 1011.9
20260901171446 30 26 4.8 8.0 0.00 0.00 0.00 65 1012.2
20260901170446 30 26 3.2 8.0 0.00 0.00 0.00 67 1012.2
20260901165446 30 27 1.6 8.0 0.00 0.00 0.00 69 1012.2
20260901164445 30 27 0.0 1.6 0.00 0.00 0.00 72 1012.2
20260901163445 30 27 1.6 6.4 0.00 0.00 0.00 72 1012.2
20260901162446 30 317 1.6 4.8 0.00 0.00 0.00 73 1012.3
20260901161445 29 311 0.0 4.8 0.00 0.00 0.00 73 1012.3
20260901160445 29 313 0.0 6.4 0.00 0.00 0.00 75 1012.3
20260901155445 29 312 1.6 9.7 0.00 0.00 0.00 75 1012.2
20260901154446 28 355 0.0 6.4 0.00 0.00 0.00 75 1012.2
20260901153446 28 258 4.8 6.4 0.00 0.00 0.00 77 1012.2
20260901152445 28 257 0.0 4.8 0.00 0.00 0.00 78 1012.1
20260901151446 28 252 4.8 9.7 0.00 0.00 0.00 79 1012.3
20260901150445 28 146 1.6 6.4 0.00 0.00 0.00 79 1012.3
20260901145446 27 145 3.2 6.4 0.00 0.00 0.00 81 1012.3
20260901144446 27 144 0.0 6.4 0.00 0.00 0.00 82 1012.3
20260901143446 27 144 0.0 3.2 0.00 0.00 0.00 82 1012.3
20260901142445 27 145 0.0 1.6 0.00 0.00 0.00 83 1012.2
20260901141448 27 144 0.0 3.2 0.00 0.00 0.00 83 1012.2
20260901140449 27 144 1.6 6.4 0.00 0.00 0.00 84 1012.2
20260901135445 27 145 0.0 0.0 0.00 0.00 0.00 85 1012.3
20260901134445 26 144 0.0 0.0 0.00 0.00 0.00 85 1012.2
20260901133445 26 144 0.0 0.0 0.00 0.00 0.00 85 1012.2
20260901132446 26 144 0.0 0.0 0.00 0.00 0.00 85 1011.9
20260901131445 26 144 0.0 0.0 0.00 0.00 0.00 85 1011.7
20260901130448 26 144 0.0 0.0 0.00 0.00 0.00 85 1011.7
20260901125445 26 144 0.0 0.0 0.00 0.00 0.00 85 1011.5
20260901124445 26 144 0.0 0.0 0.00 0.00 0.00 85 1011.3
20260901123445 26 144 0.0 0.0 0.00 0.00 0.00 85 1011.3
20260901122445 26 144 0.0 0.0 0.00 0.00 0.00 85 1011.2
20260901121445 26 144 0.0 0.0 0.00 0.00 0.00 84 1010.8
20260901120445 26 144 0.0 0.0 0.00 0.00 0.00 84 1010.8
20260901115445 26 144 0.0 0.0 0.00 0.00 0.00 84 1010.7
20260901114445 26 144 0.0 0.0 0.00 0.00 0.00 84 1010.8
20260901113445 26 144 0.0 0.0 0.00 0.00 0.00 84 1010.8
20260901112445 26 144 0.0 0.0 0.00 0.00 0.00 84 1010.8
20260901111445 26 144 0.0 0.0 0.00 0.00 0.00 83 1010.8
20260901110445 26 145 0.0 0.0 0.00 0.00 0.00 83 1010.8
20260901105445 26 145 0.0 0.0 0.00 0.00 0.00 82 1010.8
20260901104445 26 144 0.0 0.0 0.00 0.00 0.00 82 1010.6
20260901103445 26 144 0.0 0.0 0.00 0.00 0.00 82 1010.6
20260901102448 26 144 0.0 0.0 0.00 0.00 0.00 82 1010.7
20260901101445 26 144 0.0 0.0 0.00 0.00 0.00 82 1010.7
20260901100445 26 144 0.0 0.0 0.00 0.00 0.00 81 1010.7
20260901095445 26 144 0.0 0.0 0.00 0.00 0.00 81 1010.8
20260901094448 27 144 0.0 0.0 0.00 0.00 0.00 81 1010.7
20260901093448 27 144 0.0 0.0 0.00 0.00 0.00 80 1010.7
20260901092445 27 144 0.0 0.0 0.00 0.00 0.00 80 1010.8
20260901091445 27 144 0.0 0.0 0.00 0.00 0.00 80 1010.7
20260901090445 27 144 0.0 0.0 0.00 0.00 0.00 80 1010.7
20260901085445 27 144 0.0 0.0 0.00 0.00 0.00 79 1010.8
20260901084448 27 144 0.0 0.0 0.00 0.00 0.00 79 1011.0
20260901083445 27 144 0.0 0.0 0.00 0.00 0.00 79 1011.0
20260901082445 27 144 0.0 0.0 0.00 0.00 0.00 79 1011.2
20260901081445 27 144 0.0 0.0 0.00 0.00 0.00 79 1011.2
20260901080444 27 144 0.0 0.0 0.00 0.00 0.00 79 1011.2
20260901075448 27 144 0.0 0.0 0.00 0.00 0.00 79 1011.3
20260901074445 27 144 0.0 0.0 0.00 0.00 0.00 78 1011.3
20260901073445 27 144 0.0 0.0 0.00 0.00 0.00 78 1011.3
20260901072445 27 144 0.0 0.0 0.00 0.00 0.00 78 1011.3
20260901071445 27 144 0.0 0.0 0.00 0.00 0.00 77 1011.3
20260901070445 27 144 0.0 0.0 0.00 0.00 0.00 77 1011.3
20260901065444 27 144 0.0 0.0 0.00 0.00 0.00 77 1011.3
20260901064448 27 144 0.0 0.0 0.00 0.00 0.00 76 1011.4
20260901063444 27 144 0.0 0.0 0.00 0.00 0.00 75 1011.4
20260901062444 28 144 0.0 0.0 0.00 0.00 0.00 75 1011.5
20260901061448 28 144 0.0 0.0 0.00 0.00 0.00 75 1011.7
20260901060444 28 144 0.0 0.0 0.00 0.00 0.00 74 1011.7
20260901055448 28 144 0.0 0.0 0.00 0.00 0.00 74 1011.3
20260901054444 28 144 0.0 1.6 0.00 0.00 0.00 75 1011.3
20260901053445 28 144 0.0 1.6 0.00 0.00 0.00 74 1011.3
20260901052445 28 144 0.0 0.0 0.00 0.00 0.00 73 1011.3
20260901051444 28 144 0.0 0.0 0.00 0.00 0.00 73 1011.2
20260901050445 28 144 0.0 0.0 0.00 0.00 0.00 73 1011.0
20260901045444 28 144 0.0 0.0 0.00 0.00 0.00 73 1011.0
20260901044444 28 144 0.0 0.0 0.00 0.00 0.00 72 1010.8
20260901043445 28 144 0.0 0.0 0.00 0.00 0.00 72 1010.8
20260901042444 29 144 0.0 1.6 0.00 0.00 0.00 72 1011.0
20260901041444 29 144 0.0 1.6 0.00 0.00 0.00 72 1011.0
20260901040447 29 144 0.0 0.0 0.00 0.00 0.00 71 1011.0
20260901035448 29 144 0.0 1.6 0.00 0.00 0.00 71 1010.8
20260901034447 29 144 0.0 0.0 0.00 0.00 0.00 70 1010.7
20260901033448 30 144 0.0 3.2 0.00 0.00 0.00 69 1010.7
20260901032444 30 144 0.0 0.0 0.00 0.00 0.00 68 1010.6
20260901031444 30 144 0.0 0.0 0.00 0.00 0.00 67 1010.3
20260901030444 30 144 0.0 0.0 0.00 0.00 0.00 67 1010.3
20260901025445 30 144 0.0 1.6 0.00 0.00 0.00 66 1010.3
20260901024444 30 144 0.0 0.0 0.00 0.00 0.00 65 1010.1
20260901023445 30 144 0.0 0.0 0.00 0.00 0.00 63 1010.1
20260901022444 30 144 0.0 0.0 0.00 0.00 0.00 62 1009.8
20260901021444 30 144 0.0 0.0 0.00 0.00 0.00 61 1009.7
20260901020445 31 144 0.0 3.2 0.00 0.00 0.00 60 1009.7
20260901015444 31 144 4.8 6.4 0.00 0.00 0.00 59 1009.7
20260901014447 31 144 1.6 6.4 0.00 0.00 0.00 59 1009.7
20260901013447 31 144 4.8 4.8 0.00 0.00 0.00 59 1009.7
20260901012445 32 144 0.0 4.8 0.00 0.00 0.00 58 1009.8
20260901011445 32 144 3.2 4.8 0.00 0.00 0.00 57 1009.7
20260901010447 32 144 3.2 4.8 0.00 0.00 0.00 55 1009.7
20260901005445 32 145 0.0 0.0 0.00 0.00 0.00 53 1009.6
20260901004445 32 144 0.0 1.6 0.00 0.00 0.00 54 1009.7
20260901003444 32 144 0.0 1.6 0.00 0.00 0.00 53 1009.7
20260901002445 32 144 0.0 1.6 0.00 0.00 0.00 52 1009.7
20260901001447 33 144 0.0 3.2 0.00 0.00 0.00 51 1009.7
20260901000444 33 144 0.0 3.2 0.00 0.00 0.00 50 1009.7
20260831235444 33 144 1.6 4.8 0.00 0.00 0.00 48 1009.8
20260831234444 33 145 1.6 4.8 0.00 0.00 0.00 47 1009.7
20260831233444 34 144 0.0 1.6 0.00 0.00 0.00 45 1009.8
20260831232444 34 144 1.6 8.0 0.00 0.00 0.00 44 1009.7
20260831231445 35 143 1.6 3.2 0.00 0.00 0.00 40 1009.6
20260831230444 35 143 0.0 1.6 0.00 0.00 0.00 40 1009.6
20260831225445 34 143 0.0 3.2 0.00 0.00 0.00 42 1009.7
20260831224444 34 143 0.0 1.6 0.00 0.00 0.00 43 1009.8
20260831223445 34 143 0.0 6.4 0.00 0.00 0.00 42 1009.8
20260831222444 34 143 0.0 3.2 0.00 0.00 0.00 42 1009.8
20260831221448 34 144 3.2 3.2 0.00 0.00 0.00 42 1009.8
20260831220444 34 143 1.6 6.4 0.00 0.00 0.00 43 1009.8
20260831215444 34 140 1.6 6.4 0.00 0.00 0.00 45 1010.0
20260831214447 35 109 0.0 3.2 0.00 0.00 0.00 48 1010.3
20260831213446 35 109 4.8 4.8 0.00 0.00 0.00 48 1010.3
20260831212444 35 109 0.0 3.2 0.00 0.00 0.00 47 1010.3
20260831211447 36 93 0.0 3.2 0.00 0.00 0.00 46 1010.3
20260831210444 36 135 0.0 1.6 0.00 0.00 0.00 46 1010.3
20260831205444 35 135 0.0 3.2 0.00 0.00 0.00 46 1010.4
20260831204444 36 135 0.0 6.4 0.00 0.00 0.00 46 1010.7
20260831203444 36 132 0.0 6.4 0.00 0.00 0.00 44 1010.7
20260831202444 36 132 0.0 4.8 0.00 0.00 0.00 42 1010.9
20260831201444 37 130 0.0 6.4 0.00 0.00 0.00 41 1010.9
20260831200448 37 130 0.0 4.8 0.00 0.00 0.00 39 1010.9
20260831195447 37 126 0.0 3.2 0.00 0.00 0.00 40 1011.0
20260831194444 37 126 0.0 3.2 0.00 0.00 0.00 41 1011.3
20260831193447 37 126 3.2 3.2 0.00 0.00 0.00 41 1011.3
20260831192447 36 117 0.0 3.2 0.00 0.00 0.00 42 1011.4
20260831191444 36 118 6.4 8.0 0.00 0.00 0.00 43 1011.7
20260831190444 36 119 3.2 3.2 0.00 0.00 0.00 45 1011.7
20260831185444 36 119 0.0 1.6 0.00 0.00 0.00 44 1011.9
20260831184444 36 123 0.0 4.8 0.00 0.00 0.00 44 1011.9
20260831183444 36 28 3.2 4.8 0.00 0.00 0.00 43 1011.9
20260831182444 36 28 0.0 4.8 0.00 0.00 0.00 45 1012.1
20260831181444 36 27 0.0 4.8 0.00 0.00 0.00 44 1012.4
20260831180447 36 161 1.6 3.2 0.00 0.00 0.00 47 1012.4